sat.trackr.live / text

‹ back to catalog

STARLINK-6310

NORAD 56533 · 2023-065AG

PAYLOAD ACTIVE UNKNOWN

§ Identity

Operator
Country
US
Launch date
2023-05-14
Launch site
AFETR
Launch vehicle
Mass (kg)
RCS (m²)

Purposes: comms

External: N2YO · Heavens-Above · Gunter

§ Orbital elements

Epoch: 2026-05-24T23:28:26.517216Z

Period
94.27 min
Inclination
43.0013°
Eccentricity
0.0000947
Mean motion
15.27573609 rev/d
Perigee alt
482.4 km
Apogee alt
483.7 km
Semi-major
6,861.2 km
B*
1.3638e-5
RAAN
127.2136°
Arg perigee
263.1018°
Mean anomaly
96.9726°
Rev number
16,843

§ Raw data

STARLINK-63101 56533U 23065AG  26144.97808469  .00000113  00000+0  13638-4 0  99952 56533  43.0013 127.2136 0000947 263.1018  96.9726 15.27573609168434

JSON: /api/v1/satellites/56533 · /tle

For live sub-satellite position, see the globe view (requires WebGL).

§ Visibility from observer

Set your observer location to see the next 7 days of passes ≥ 10°. The values pass through the URL so the page stays shareable.

No JS? Fill the form by hand. The geolocation button needs JavaScript.